GW3550 Weather Reports


Display with metric or nautical units.
time (UTC)temp
F
wind
direction
speed
MPH
gust
MPH
rain 1hr
in
rain 24hr
in
rain mn
in
humidity
%
barometer
mb
20260504130626 61 231 1.0 2.0 0.00 0.00 0.00 59 1019.8
20260504130123 61 231 0.0 1.0 0.00 0.00 0.00 61 1019.5
20260504110508 46 234 0.0 1.0 0.00 0.00 0.00 85 1019.4
20260504100419 45 235 0.0 1.0 0.00 0.00 0.00 88 1019.0
20260504081806 47 240 0.0 0.0 0.00 0.00 0.00 84 1019.0
20260504081303 48 240 0.0 0.0 0.00 0.00 0.00 82 1018.9
20260504080759 47 240 0.0 0.0 0.00 0.00 0.00 82 1018.9
20260504080255 47 240 0.0 0.0 0.00 0.00 0.00 82 1019.1
20260504070223 51 240 0.0 1.0 0.00 0.00 0.00 71 1019.5
20260504060144 52 239 1.0 2.0 0.00 0.00 0.00 67 1019.4
20260504050612 54 238 1.0 2.0 0.00 0.00 0.00 62 1019.6
20260504050109 55 234 1.0 2.0 0.00 0.00 0.00 62 1019.6
20260504045606 55 234 1.0 2.0 0.00 0.00 0.00 62 1019.5
20260504045101 55 247 1.0 2.0 0.00 0.00 0.00 62 1019.5
20260504044559 55 244 1.0 2.0 0.00 0.00 0.00 61 1019.6
20260504044055 55 229 1.0 2.0 0.00 0.00 0.00 62 1019.6
20260504043553 55 257 2.0 2.0 0.00 0.00 0.00 62 1019.3
20260504043050 54 244 1.0 1.0 0.00 0.00 0.00 63 1019.6
20260504042547 54 243 1.0 1.0 0.00 0.00 0.00 64 1019.6
20260504042044 54 231 0.0 2.0 0.00 0.00 0.00 64 1019.6
20260504041539 54 249 1.0 2.0 0.00 0.00 0.00 64 1019.5
20260504041036 52 252 1.0 2.0 0.00 0.00 0.00 66 1019.6
20260504040533 53 237 0.0 0.0 0.00 0.00 0.00 67 1019.5
20260504040030 53 237 0.0 1.0 0.00 0.00 0.00 65 1019.6
20260504035527 53 237 0.0 0.0 0.00 0.00 0.00 66 1019.5
20260504035023 53 237 0.0 1.0 0.00 0.00 0.00 66 1019.5
20260504034521 53 237 0.0 1.0 0.00 0.00 0.00 66 1019.7
20260504034017 54 237 0.0 1.0 0.00 0.00 0.00 67 1019.8
20260504033516 54 237 0.0 0.0 0.00 0.00 0.00 65 1019.6
20260504033013 54 237 0.0 1.0 0.00 0.00 0.00 63 1019.8
20260504032509 53 237 0.0 0.0 0.00 0.00 0.00 66 1019.7
20260504032006 54 237 0.0 0.0 0.00 0.00 0.00 65 1019.7
20260504031503 54 237 1.0 1.0 0.00 0.00 0.00 64 1019.7
20260504030959 54 237 1.0 1.0 0.00 0.00 0.00 64 1019.8
20260504030457 54 237 0.0 1.0 0.00 0.00 0.00 63 1019.7
20260504025952 54 237 0.0 1.0 0.00 0.00 0.00 65 1019.7
20260504025450 55 237 0.0 1.0 0.00 0.00 0.00 64 1019.6
20260504024946 55 237 0.0 1.0 0.00 0.00 0.00 63 1019.7
20260504024443 55 237 0.0 1.0 0.00 0.00 0.00 61 1019.6
20260504023940 56 237 0.0 1.0 0.00 0.00 0.00 61 1019.4
20260504023437 56 237 1.0 1.0 0.00 0.00 0.00 60 1019.4
20260504022932 56 237 0.0 1.0 0.00 0.00 0.00 59 1019.6
20260504022429 56 237 0.0 2.0 0.00 0.00 0.00 59 1019.5
20260504021926 56 237 0.0 1.0 0.00 0.00 0.00 59 1019.5
20260504021423 56 237 0.0 1.0 0.00 0.00 0.00 59 1019.5
20260504020920 56 237 1.0 1.0 0.00 0.00 0.00 59 1019.2
20260504020416 56 237 1.0 1.0 0.00 0.00 0.00 59 1019.3
20260504013911 59 237 0.0 0.0 0.00 0.00 0.00 55 1018.8
20260504013409 59 237 0.0 0.0 0.00 0.00 0.00 55 1018.8
20260504012905 59 237 0.0 0.0 0.00 0.00 0.00 55 1018.8
20260504012403 59 237 0.0 1.0 0.00 0.00 0.00 51 1018.9
20260504011900 59 237 1.0 1.0 0.00 0.00 0.00 51 1018.9
20260504011356 59 237 1.0 1.0 0.00 0.00 0.00 51 1018.8
20260504010847 59 237 0.0 1.0 0.00 0.00 0.00 51 1018.8
20260504010343 59 237 0.0 0.0 0.00 0.00 0.00 51 1018.8
20260504005839 60 237 0.0 0.0 0.00 0.00 0.00 49 1018.5
20260504005336 61 237 0.0 0.0 0.00 0.00 0.00 48 1018.5
20260504004834 61 237 0.0 0.0 0.00 0.00 0.00 47 1018.4
20260504004331 62 237 1.0 1.0 0.00 0.00 0.00 46 1018.3
20260504003827 62 256 1.0 2.0 0.00 0.00 0.00 45 1018.3
20260504003325 62 241 1.0 3.0 0.00 0.00 0.00 44 1018.3
20260504002821 63 237 1.0 2.0 0.00 0.00 0.00 44 1018.3
20260504002318 63 228 1.0 2.0 0.00 0.00 0.00 43 1018.1
20260504001816 64 251 2.0 4.0 0.00 0.00 0.00 42 1017.8
20260504001313 64 251 1.0 4.0 0.00 0.00 0.00 41 1018.3
20260504000810 64 235 2.0 3.0 0.00 0.00 0.00 40 1018.1
20260504000307 65 243 0.0 3.0 0.00 0.00 0.00 40 1017.9
20260503235804 66 252 2.0 6.0 0.00 0.00 0.00 39 1018.1
20260503235301 66 249 4.0 8.0 0.00 0.00 0.00 38 1018.1
20260503234759 67 254 1.0 4.0 0.00 0.00 0.00 37 1018.2
20260503234257 67 234 1.0 3.0 0.00 0.00 0.00 37 1018.0
20260503233754 68 248 4.0 6.0 0.00 0.00 0.00 36 1018.1
20260503233249 68 246 2.0 4.0 0.00 0.00 0.00 36 1017.9
20260503232747 68 256 2.0 8.0 0.00 0.00 0.00 36 1018.0
20260503232244 69 260 4.0 8.0 0.00 0.00 0.00 36 1017.9
20260503231742 69 228 4.0 6.0 0.00 0.00 0.00 35 1018.0
20260503231239 69 265 4.0 4.0 0.00 0.00 0.00 35 1018.1
20260503230734 69 258 2.0 6.0 0.00 0.00 0.00 37 1018.0
20260503230232 69 257 4.0 7.0 0.00 0.00 0.00 36 1018.1
20260503225729 70 244 1.0 2.0 0.00 0.00 0.00 35 1018.2
20260503225223 70 258 1.0 4.0 0.00 0.00 0.00 35 1018.2
20260503224721 70 237 5.0 8.0 0.00 0.00 0.00 34 1018.2
20260503224218 69 249 6.0 8.0 0.00 0.00 0.00 33 1018.2
20260503223716 70 229 2.0 3.0 0.00 0.00 0.00 35 1018.0
20260503223214 70 250 0.0 3.0 0.00 0.00 0.00 34 1018.1
20260503222710 70 260 1.0 10.0 0.00 0.00 0.00 35 1018.2
20260503222208 70 226 2.0 6.0 0.00 0.00 0.00 35 1018.1
20260503221706 71 260 3.0 7.0 0.00 0.00 0.00 35 1018.1
20260503221203 71 223 5.0 10.0 0.00 0.00 0.00 33 1018.1
20260503220700 70 237 3.0 6.0 0.00 0.00 0.00 31 1018.1
20260503220156 72 256 4.0 6.0 0.00 0.00 0.00 33 1018.2
20260503215653 72 227 4.0 6.0 0.00 0.00 0.00 35 1018.1
20260503215149 73 164 6.0 8.0 0.00 0.00 0.00 32 1018.1
20260503214648 73 241 1.0 1.0 0.00 0.00 0.00 32 1018.3
20260503214143 71 256 3.0 7.0 0.00 0.00 0.00 35 1018.5
20260503213638 73 262 1.0 4.0 0.00 0.00 0.00 33 1018.2
20260503213134 72 155 2.0 6.0 0.00 0.00 0.00 31 1018.3
20260503212631 71 276 5.0 10.0 0.00 0.00 0.00 32 1018.3
20260503212129 71 229 1.0 7.0 0.00 0.00 0.00 33 1018.1
20260503211627 71 244 2.0 7.0 0.00 0.00 0.00 34 1018.4
20260503211121 72 266 3.0 4.0 0.00 0.00 0.00 36 1018.6
20260503210618 73 258 1.0 4.0 0.00 0.00 0.00 34 1018.2
20260503210115 72 259 1.0 4.0 0.00 0.00 0.00 37 1018.6
20260503205611 70 228 1.0 6.0 0.00 0.00 0.00 36 1018.4
20260503205107 71 265 6.0 9.0 0.00 0.00 0.00 34 1018.7
20260503204604 71 240 4.0 10.0 0.00 0.00 0.00 34 1018.6
20260503204101 71 222 0.0 3.0 0.00 0.00 0.00 33 1018.7
20260503203558 72 254 2.0 7.0 0.00 0.00 0.00 32 1018.7
20260503203055 72 256 2.0 4.0 0.00 0.00 0.00 34 1018.9
20260503202553 72 51 3.0 4.0 0.00 0.00 0.00 31 1018.9
20260503202051 72 219 1.0 7.0 0.00 0.00 0.00 31 1019.0
20260503201549 72 257 2.0 13.0 0.00 0.00 0.00 31 1019.1
20260503201046 72 216 0.0 3.0 0.00 0.00 0.00 34 1019.1
20260503200542 71 266 1.0 6.0 0.00 0.00 0.00 33 1019.2
20260503200038 70 234 1.0 6.0 0.00 0.00 0.00 34 1019.3
20260503195536 71 252 3.0 8.0 0.00 0.00 0.00 34 1019.3
20260503195032 72 0 1.0 2.0 0.00 0.00 0.00 35 1019.6
20260503194530 72 249 4.0 7.0 0.00 0.00 0.00 36 1019.7
20260503194030 71 254 0.0 6.0 0.00 0.00 0.00 37 1019.7
20260503193527 71 241 0.0 3.0 0.00 0.00 0.00 35 1019.7
20260503193022 71 243 4.0 6.0 0.00 0.00 0.00 37 1019.7
20260503192518 71 244 0.0 3.0 0.00 0.00 0.00 34 1020.0
20260503192014 71 261 4.0 7.0 0.00 0.00 0.00 34 1020.0
20260503191511 70 273 2.0 6.0 0.00 0.00 0.00 35 1020.3
20260503191008 71 242 1.0 3.0 0.00 0.00 0.00 36 1020.2
20260503190505 72 247 3.0 3.0 0.00 0.00 0.00 35 1020.2
20260503190002 71 221 0.0 6.0 0.00 0.00 0.00 37 1020.3
20260503185458 71 222 1.0 4.0 0.00 0.00 0.00 35 1020.5
20260503184957 70 246 2.0 4.0 0.00 0.00 0.00 34 1020.4
20260503184454 71 272 4.0 7.0 0.00 0.00 0.00 36 1020.5
20260503183951 71 295 0.0 2.0 0.00 0.00 0.00 34 1020.5
20260503183447 70 260 2.0 4.0 0.00 0.00 0.00 36 1020.8
20260503182944 69 30 0.0 3.0 0.00 0.00 0.00 36 1020.8
20260503182443 69 279 4.0 8.0 0.00 0.00 0.00 35 1021.1
20260503181940 69 219 2.0 2.0 0.00 0.00 0.00 34 1020.8
20260503181437 69 265 2.0 8.0 0.00 0.00 0.00 36 1020.9
20260503180933 68 182 2.0 4.0 0.00 0.00 0.00 39 1020.8
20260503180431 69 278 3.0 3.0 0.00 0.00 0.00 39 1021.0
20260503175928 69 55 2.0 4.0 0.00 0.00 0.00 36 1020.9
20260503175426 69 226 1.0 3.0 0.00 0.00 0.00 34 1021.0
20260503174921 69 246 1.0 6.0 0.00 0.00 0.00 39 1020.9
20260503174420 68 52 4.0 6.0 0.00 0.00 0.00 38 1021.0
20260503173920 68 316 3.0 7.0 0.00 0.00 0.00 37 1021.1
20260503173417 68 335 2.0 2.0 0.00 0.00 0.00 36 1021.1
20260503172914 68 235 1.0 2.0 0.00 0.00 0.00 35 1021.3
20260503172411 67 250 0.0 6.0 0.00 0.00 0.00 34 1021.2
20260503171907 68 266 3.0 3.0 0.00 0.00 0.00 34 1021.3
20260503171404 67 211 0.0 6.0 0.00 0.00 0.00 36 1021.3
20260503170902 66 239 0.0 3.0 0.00 0.00 0.00 37 1021.4
20260503170358 66 227 0.0 4.0 0.00 0.00 0.00 39 1021.6
20260503150750 64 237 1.0 4.0 0.00 0.00 0.00 46 1022.0
20260503150246 63 219 0.0 1.0 0.00 0.00 0.00 45 1022.3
20260503140211 60 256 3.0 4.0 0.00 0.00 0.00 57 1021.8